�������l�o���
Date,Time,MP-1(��Sv/h),MP-2(��Sv/h),MP-3(��Sv/h),MP-4(��Sv/h),MP-5(��Sv/h),MP-6(��Sv/h),MP-7(��Sv/h),MP-8(��Sv/h),����,����(m/s),���J
2014/12/16,00:00,2.005,3.678,3.967,3.625,3.795,1.153,1.912,2.172,��쐼,1.8,��
2014/12/16,00:10,2.005,3.678,3.965,3.628,3.800,1.155,1.912,2.170,��쐼,2.2,��
2014/12/16,00:20,2.002,3.678,3.972,3.625,3.798,1.152,1.910,2.170,��쐼,2.0,��
2014/12/16,00:30,1.998,3.677,3.968,3.625,3.797,1.153,1.910,2.172,��쐼,2.6,��
2014/12/16,00:40,2.000,3.673,3.970,3.625,3.798,1.153,1.912,2.170,��쐼,2.6,��
2014/12/16,00:50,2.000,3.675,3.968,3.627,3.797,1.153,1.910,2.172,�쐼,2.4,��
2014/12/16,01:00,2.002,3.682,3.975,3.625,3.795,1.153,1.912,2.172,�쐼,1.6,��
2014/12/16,01:10,2.003,3.675,3.973,3.625,3.795,1.155,1.915,2.168,�쐼,1.6,��
2014/12/16,01:20,2.002,3.678,3.973,3.625,3.795,1.155,1.910,2.170,��쐼,2.2,��
2014/12/16,01:30,2.005,3.677,3.973,3.627,3.792,1.157,1.912,2.170,�쐼,3.0,��
2014/12/16,01:40,2.005,3.675,3.973,3.625,3.792,1.155,1.912,2.173,��쐼,2.7,��
2014/12/16,01:50,2.005,3.677,3.973,3.627,3.790,1.153,1.913,2.172,��쐼,2.4,��
2014/12/16,02:00,2.003,3.677,3.970,3.622,3.797,1.153,1.912,2.173,��쐼,2.0,��
2014/12/16,02:10,2.003,3.673,3.973,3.627,3.802,1.152,1.912,2.168,��쐼,1.3,��
2014/12/16,02:20,2.000,3.675,3.975,3.630,3.803,1.153,1.912,2.172,��쐼,1.5,��
2014/12/16,02:30,2.002,3.677,3.973,3.630,3.797,1.155,1.910,2.170,��,1.2,��
2014/12/16,02:40,2.003,3.677,3.975,3.632,3.798,1.157,1.910,2.170,��쐼,1.7,��
2014/12/16,02:50,2.000,3.678,3.978,3.633,3.800,1.155,1.912,2.170,�쐼,1.4,��
2014/12/16,03:00,2.003,3.677,3.973,3.628,3.803,1.153,1.910,2.170,���쐼,2.8,��
2014/12/16,03:10,2.007,3.675,3.975,3.630,3.803,1.153,1.912,2.170,���쐼,2.3,��
2014/12/16,03:20,2.005,3.675,3.973,3.632,3.800,1.153,1.913,2.170,��,2.4,��
2014/12/16,03:30,2.002,3.678,3.973,3.627,3.802,1.157,1.910,2.172,��,3.0,��
2014/12/16,03:40,2.002,3.677,3.977,3.630,3.800,1.153,1.912,2.175,���k��,2.7,��
2014/12/16,03:50,2.005,3.682,3.975,3.635,3.800,1.155,1.912,2.172,���k��,3.1,��
2014/12/16,04:00,2.007,3.678,3.970,3.637,3.802,1.155,1.908,2.173,���k��,2.5,��
2014/12/16,04:10,2.005,3.678,3.975,3.633,3.800,1.155,1.912,2.172,�k��,3.4,��
2014/12/16,04:20,2.005,3.677,3.980,3.628,3.803,1.155,1.910,2.168,�k��,2.8,��
2014/12/16,04:30,2.005,3.678,3.975,3.627,3.802,1.155,1.912,2.168,�k�k��,2.8,��
2014/12/16,04:40,2.000,3.678,3.977,3.627,3.798,1.155,1.912,2.168,�k�k��,2.1,��
2014/12/16,04:50,2.002,3.678,3.975,3.630,3.800,1.155,1.913,2.170,�k�k��,3.1,��
2014/12/16,05:00,2.005,3.683,3.977,3.630,3.800,1.157,1.912,2.172,�k�k��,2.6,��
2014/12/16,05:10,2.003,3.683,3.973,3.628,3.802,1.158,1.912,2.172,�k�k��,2.6,��
2014/12/16,05:20,2.005,3.678,3.973,3.635,3.800,1.157,1.912,2.172,�k��,2.4,��
2014/12/16,05:30,2.008,3.683,3.977,3.632,3.800,1.155,1.912,2.170,�k��,2.2,��
2014/12/16,05:40,2.008,3.685,3.975,3.630,3.800,1.155,1.915,2.170,�k��,2.0,��
2014/12/16,05:50,2.010,3.683,3.980,3.633,3.805,1.158,1.910,2.173,���k��,1.9,�L
2014/12/16,06:00,2.005,3.680,3.982,3.637,3.802,1.157,1.912,2.172,���k��,2.7,��
2014/12/16,06:10,2.007,3.682,3.972,3.632,3.800,1.155,1.912,2.173,���k��,2.9,��
2014/12/16,06:20,2.005,3.680,3.975,3.632,3.802,1.157,1.912,2.173,���k��,3.4,��
2014/12/16,06:30,2.007,3.683,3.975,3.632,3.802,1.155,1.912,2.170,���k��,2.4,��
2014/12/16,06:40,2.007,3.685,3.978,3.632,3.798,1.157,1.910,2.170,���k��,2.0,��
2014/12/16,06:50,2.008,3.680,3.980,3.632,3.795,1.153,1.913,2.172,���k��,1.3,��
2014/12/16,07:00,2.007,3.678,3.977,3.632,3.798,1.155,1.913,2.172,��,2.1,�L
2014/12/16,07:10,2.003,3.682,3.978,3.633,3.798,1.155,1.913,2.172,��,2.8,�L
2014/12/16,07:20,2.005,3.680,3.970,3.628,3.795,1.153,1.912,2.173,��,3.8,�L
2014/12/16,07:30,2.002,3.667,3.963,3.623,3.787,1.148,1.912,2.173,���쐼,2.9,�L
2014/12/16,07:40,1.998,3.650,3.945,3.617,3.770,1.142,1.908,2.167,���쐼,3.0,�L
2014/12/16,07:50,1.998,3.632,3.932,3.608,3.747,1.135,1.902,2.163,�쐼,3.0,�L
2014/12/16,08:00,1.997,3.617,3.918,3.600,3.725,1.132,1.898,2.158,�쐼,3.5,�L
2014/12/16,08:10,1.995,3.602,3.910,3.593,3.712,1.132,1.895,2.157,��쐼,1.8,�L
2014/12/16,08:20,1.992,3.597,3.898,3.590,3.705,1.130,1.897,2.155,��쐼,2.5,�L
2014/12/16,08:30,1.990,3.590,3.885,3.585,3.698,1.127,1.897,2.155,��쐼,2.9,�L
2014/12/16,08:40,1.992,3.583,3.880,3.582,3.693,1.125,1.893,2.155,��쐼,3.1,�L
2014/12/16,08:50,1.992,3.578,3.870,3.577,3.682,1.123,1.893,2.155,��쐼,2.9,�L
2014/12/16,09:00,1.987,3.572,3.862,3.568,3.677,1.120,1.895,2.153,��쐼,3.8,�L
2014/12/16,09:10,1.987,3.567,3.857,3.568,3.673,1.122,1.895,2.155,��쐼,3.0,�L
2014/12/16,09:20,1.985,3.565,3.858,3.568,3.675,1.122,1.895,2.157,��쐼,2.9,�L
2014/12/16,09:30,1.985,3.565,3.862,3.565,3.677,1.123,1.895,2.150,��,4.4,�L
2014/12/16,09:40,1.983,3.567,3.858,3.565,3.675,1.122,1.895,2.150,��,3.3,�L
2014/12/16,09:50,1.985,3.567,3.858,3.567,3.677,1.120,1.897,2.155,��쐼,3.6,�L
2014/12/16,10:00,1.982,3.568,3.863,3.565,3.680,1.123,1.895,2.155,��쐼,4.1,�L
2014/12/16,10:10,1.983,3.565,3.863,3.562,3.677,1.120,1.893,2.153,��쐼,4.2,�L
2014/12/16,10:20,1.982,3.568,3.858,3.567,3.683,1.122,1.895,2.153,��쐼,4.2,�L
2014/12/16,10:30,1.980,3.567,3.855,3.562,3.687,1.123,1.893,2.155,��쐼,4.1,�L
2014/12/16,10:40,1.982,3.572,3.858,3.562,3.685,1.123,1.898,2.150,��쐼,3.7,�L
2014/12/16,10:50,1.980,3.568,3.868,3.565,3.690,1.123,1.898,2.155,��쐼,3.0,��
2014/12/16,11:00,1.983,3.572,3.868,3.562,3.690,1.123,1.900,2.157,��쐼,2.3,��
2014/12/16,11:10,1.980,3.575,3.872,3.567,3.693,1.128,1.898,2.155,�쐼,1.8,��
2014/12/16,11:20,1.982,3.572,3.872,3.567,3.700,1.128,1.900,2.153,���쐼,2.0,��
2014/12/16,11:30,1.985,3.575,3.875,3.567,3.697,1.130,1.902,2.155,���k��,1.5,��
2014/12/16,11:40,1.985,3.577,3.878,3.570,3.703,1.130,1.902,2.153,��,1.8,��
2014/12/16,11:50,1.983,3.582,3.877,3.563,3.700,1.132,1.900,2.153,��,1.4,��
2014/12/16,12:00,1.988,3.580,3.877,3.565,3.702,1.130,1.903,2.153,��,1.6,��
2014/12/16,12:10,1.983,3.585,3.880,3.567,3.707,1.130,1.902,2.155,���k��,1.9,��
2014/12/16,12:20,1.983,3.585,3.885,3.572,3.707,1.133,1.903,2.153,��,1.5,��
2014/12/16,12:30,1.983,3.585,3.883,3.570,3.713,1.133,1.903,2.158,���k��,2.4,��
2014/12/16,12:40,1.985,3.588,3.883,3.573,3.712,1.135,1.902,2.158,���k��,2.4,��
2014/12/16,12:50,1.985,3.588,3.885,3.568,3.717,1.135,1.902,2.153,���k��,2.8,�L
2014/12/16,13:00,1.987,3.587,3.885,3.568,3.717,1.137,1.902,2.153,�k��,1.4,�L
2014/12/16,13:10,1.983,3.580,3.882,3.567,3.712,1.137,1.902,2.152,�k��,1.7,�L
2014/12/16,13:20,1.987,3.583,3.880,3.567,3.708,1.137,1.902,2.153,�k�k��,1.5,�L
2014/12/16,13:30,1.983,3.582,3.883,3.570,3.710,1.138,1.902,2.155,�k,2.4,�L
2014/12/16,13:40,1.983,3.580,3.882,3.570,3.703,1.138,1.902,2.155,�k,2.3,�L
2014/12/16,13:50,1.983,3.582,3.880,3.568,3.705,1.137,1.903,2.155,�k�k��,2.4,�L
2014/12/16,14:00,1.988,3.578,3.875,3.568,3.702,1.138,1.903,2.153,�k,1.6,�L
2014/12/16,14:10,1.985,3.577,3.872,3.562,3.695,1.138,1.900,2.155,�k�k��,0.9,�L
2014/12/16,14:20,1.980,3.563,3.865,3.560,3.690,1.135,1.900,2.152,�k�k��,1.1,�L
2014/12/16,14:30,1.978,3.557,3.862,3.553,3.680,1.135,1.900,2.152,���k��,1.8,�L
2014/12/16,14:40,1.975,3.550,3.855,3.548,3.673,1.135,1.898,2.145,�k��,2.5,�L
2014/12/16,14:50,1.975,3.547,3.852,3.545,3.672,1.135,1.895,2.147,�k��,2.4,�L
2014/12/16,15:00,1.975,3.548,3.850,3.538,3.670,1.135,1.895,2.150,�k��,2.7,�L
2014/12/16,15:10,1.975,3.545,3.847,3.537,3.672,1.137,1.897,2.145,�k�k��,1.6,�L
2014/12/16,15:20,1.972,3.540,3.842,3.540,3.670,1.137,1.895,2.147,�k,1.5,�L
2014/12/16,15:30,1.972,3.543,3.845,3.537,3.673,1.137,1.895,2.147,�k�k��,1.9,�L
2014/12/16,15:40,1.973,3.540,3.845,3.535,3.672,1.140,1.897,2.147,�k��,2.3,�L
2014/12/16,15:50,1.972,3.547,3.848,3.535,3.670,1.145,1.898,2.152,�k��,2.7,�L
2014/12/16,16:00,1.973,3.548,3.852,3.538,3.675,1.145,1.900,2.148,���k��,3.0,�L
2014/12/16,16:10,1.975,3.550,3.853,3.537,3.678,1.145,1.897,2.150,�k��,3.0,�L
2014/12/16,16:20,1.975,3.545,3.852,3.533,3.677,1.145,1.897,2.150,�k��,3.4,�L
2014/12/16,16:30,1.975,3.550,3.857,3.538,3.678,1.145,1.898,2.150,���k��,3.2,�L
2014/12/16,16:40,1.975,3.548,3.857,3.540,3.677,1.147,1.897,2.147,���k��,2.6,�L
2014/12/16,16:50,1.975,3.537,3.835,3.530,3.668,1.150,1.898,2.147,���k��,2.6,�L
2014/12/16,17:00,1.970,3.525,3.830,3.518,3.655,1.148,1.895,2.143,��,2.4,�L
2014/12/16,17:10,1.965,3.508,3.817,3.507,3.637,1.147,1.890,2.142,��,2.1,�L
2014/12/16,17:20,1.958,3.493,3.805,3.498,3.623,1.145,1.888,2.140,���k��,2.6,�L
2014/12/16,17:30,1.955,3.477,3.795,3.488,3.610,1.143,1.887,2.133,���k��,2.6,�L
2014/12/16,17:40,1.948,3.465,3.780,3.478,3.595,1.143,1.883,2.133,���k��,3.4,�L
2014/12/16,17:50,1.945,3.443,3.763,3.462,3.580,1.143,1.880,2.132,���k��,3.1,�L
2014/12/16,18:00,1.933,3.418,3.750,3.448,3.553,1.137,1.873,2.128,���k��,3.7,�L
2014/12/16,18:10,1.930,3.407,3.740,3.442,3.547,1.138,1.872,2.127,���k��,4.1,�L
2014/12/16,18:20,1.927,3.408,3.740,3.440,3.550,1.138,1.872,2.123,���k��,4.1,�L
2014/12/16,18:30,1.920,3.405,3.737,3.435,3.538,1.135,1.872,2.120,���k��,3.9,�L
2014/12/16,18:40,1.920,3.397,3.733,3.427,3.535,1.137,1.870,2.118,���k��,4.3,�L
2014/12/16,18:50,1.922,3.397,3.725,3.422,3.525,1.135,1.868,2.117,���k��,4.5,�L
2014/12/16,19:00,1.918,3.392,3.715,3.420,3.515,1.133,1.867,2.117,�k��,7.2,�L
2014/12/16,19:10,1.917,3.388,3.720,3.420,3.517,1.133,1.865,2.115,�k��,7.4,�L
2014/12/16,19:20,1.915,3.390,3.723,3.420,3.515,1.137,1.865,2.115,�k��,9.6,�L
2014/12/16,19:30,1.913,3.390,3.720,3.413,3.510,1.132,1.865,2.112,�k��,8.9,�L
2014/12/16,19:40,1.915,3.398,3.727,3.417,3.513,1.138,1.863,2.113,���k��,7.9,�L
2014/12/16,19:50,1.925,3.410,3.737,3.423,3.522,1.138,1.863,2.117,���k��,5.1,�L
2014/12/16,20:00,1.933,3.423,3.752,3.428,3.533,1.140,1.865,2.115,���k��,4.9,�L
2014/12/16,20:10,1.937,3.427,3.753,3.437,3.538,1.140,1.868,2.117,���k��,6.6,�L
2014/12/16,20:20,1.942,3.438,3.763,3.440,3.545,1.147,1.873,2.118,���k��,8.0,�L
2014/12/16,20:30,1.942,3.445,3.768,3.448,3.552,1.145,1.872,2.123,�k��,7.8,�L
2014/12/16,20:40,1.947,3.448,3.768,3.452,3.552,1.147,1.878,2.120,�k��,6.8,�L
2014/12/16,20:50,1.947,3.452,3.767,3.448,3.547,1.147,1.878,2.125,�k�k��,8.8,�L
2014/12/16,21:00,1.948,3.457,3.775,3.448,3.553,1.148,1.880,2.122,�k�k��,8.2,�L
2014/12/16,21:10,1.950,3.460,3.777,3.455,3.563,1.148,1.877,2.125,�k�k��,8.6,��
2014/12/16,21:20,1.952,3.463,3.780,3.457,3.570,1.150,1.878,2.123,�k�k��,8.5,��
2014/12/16,21:30,1.950,3.468,3.788,3.462,3.575,1.147,1.878,2.125,�k�k��,7.2,��
2014/12/16,21:40,1.950,3.473,3.795,3.462,3.580,1.152,1.880,2.127,�k�k��,7.9,��
2014/12/16,21:50,1.952,3.477,3.797,3.462,3.582,1.150,1.880,2.125,�k��,8.9,��
2014/12/16,22:00,1.950,3.482,3.800,3.465,3.588,1.150,1.880,2.127,�k�k��,11.3,��
2014/12/16,22:10,1.950,3.483,3.805,3.468,3.590,1.148,1.882,2.125,�k�k��,9.7,��
2014/12/16,22:20,1.953,3.485,3.810,3.470,3.597,1.150,1.887,2.125,�k�k��,8.9,��
2014/12/16,22:30,1.952,3.487,3.812,3.468,3.598,1.148,1.887,2.127,�k�k��,6.6,��
2014/12/16,22:40,1.953,3.488,3.813,3.470,3.597,1.148,1.883,2.127,�k��,4.9,��
2014/12/16,22:50,1.955,3.490,3.810,3.480,3.598,1.147,1.885,2.127,�k��,6.1,��
2014/12/16,23:00,1.958,3.495,3.815,3.480,3.600,1.147,1.885,2.130,�k��,8.2,��
2014/12/16,23:10,1.953,3.500,3.818,3.480,3.607,1.147,1.885,2.127,���k��,6.6,��
2014/12/16,23:20,1.958,3.505,3.817,3.480,3.618,1.145,1.883,2.128,��,13.5,��
2014/12/16,23:30,1.957,3.505,3.818,3.483,3.617,1.145,1.887,2.133,��,9.1,��
2014/12/16,23:40,1.958,3.503,3.823,3.485,3.617,1.147,1.887,2.133,��,10.5,��
2014/12/16,23:50,1.957,3.512,3.830,3.487,3.620,1.145,1.888,2.132,���k��,12.9,��
